Volver al catálogo

SL-12 DEB

ActivoHEO
NORAD 41681·DEBRIS·🇷🇺 Russia

Lanzado Oct 26, 2007 desde Baikonur Cosmodrome

Loading…

Próximos Pases (próximas 24 horas)

TLE

ActualizadoSource: Space-Track

Época: Sep 11, 2026, 00:03 UTC

1 41681U 07052N   26254.00234495  .00002202  00000-0  77363-3 0  9995
2 41681  64.9459 146.6917 5739788 193.8998 139.1726  4.40159161192728

Sigue SL-12 DEB en tiempo real con AllMySat

Download on the App Store